This is the latest recevied weather packets stored in our database for station/object DC1MPP-9. If no packets are shown the sender has not sent any weather packets the latest 10 day(s).
| Time | Temp. | Humidity | Pressure | Rain* | Wind** | Luminosity | Snow |
|---|---|---|---|---|---|---|---|
| 1777733918 | 24.44° C | 25% | 961 hPa | - | - | - | - |
| 1777733677 | 25° C | 25% | 961 hPa | - | - | - | - |
| 1777733436 | 25° C | 25% | 961 hPa | - | - | - | - |
| 1777733195 | 25° C | 27% | 961 hPa | - | - | - | - |
| 1777732713 | 25.56° C | 25% | 961 hPa | - | - | - | - |
| 1777732472 | 25° C | 24% | 961 hPa | - | - | - | - |
| 1777731990 | 25° C | 24% | 961 hPa | - | - | - | - |
| 1777731749 | 25° C | 25% | 961 hPa | - | - | - | - |
| 1777731508 | 25° C | 24% | 961 hPa | - | - | - | - |
| 1777731267 | 26.11° C | 27% | 961 hPa | - | - | - | - |
| 1777731025 | 26.11° C | 25% | 962 hPa | - | - | - | - |
| 1777730784 | 25.56° C | 24% | 962 hPa | - | - | - | - |
| 1777730543 | 25.56° C | 26% | 962 hPa | - | - | - | - |
| 1777730302 | 25.56° C | 26% | 962 hPa | - | - | - | - |
| 1777730061 | 26.11° C | 25% | 962 hPa | - | - | - | - |
| 1777729820 | 26.11° C | 26% | 962 hPa | - | - | - | - |
| 1777729579 | 25.56° C | 25% | 962 hPa | - | - | - | - |
| 1777729097 | 26.11° C | 25% | 962 hPa | - | - | - | - |
| 1777728856 | 26.11° C | 27% | 962 hPa | - | - | - | - |
| 1777728615 | 26.11° C | 27% | 962 hPa | - | - | - | - |
| 1777728374 | 26.11° C | 27% | 962 hPa | - | - | - | - |
| 1777728133 | 26.11° C | 25% | 962 hPa | - | - | - | - |
| 1777727892 | 25.56° C | 25% | 962 hPa | - | - | - | - |
| 1777727651 | 26.11° C | 27% | 962 hPa | - | - | - | - |
| 1777727410 | 26.11° C | 27% | 962 hPa | - | - | - | - |
* Rain since midnight (hover to see other rain measurements)
** Current wind speed in m/s (hover to see current wind gust speed)